owner,sensor,date,latitude,longitude,air_temperature,qcFlag 
COMPS,ioos:station:USF.COMPS:ANC:1,2011-01-01T00:00:00Z,28.1930,-82.7890,16.8,1111122 
COMPS,ioos:station:USF.COMPS:ANC:1,2011-01-01T00:06:00Z,28.1930,-82.7890,16.57,1111122 
COMPS,ioos:station:USF.COMPS:ANC:1,2011-01-01T00:12:00Z,28.1930,-82.7890,16.54,1111122 
COMPS,ioos:station:USF.COMPS:ANC:1,2011-01-01T00:18:00Z,28.1930,-82.7890,16.47,1111122 
COMPS,ioos:station:USF.COMPS:ANC:1,2011-01-01T00:24:00Z,28.1930,-82.7890,16.53,1111122 
COMPS,ioos:station:USF.COMPS:ANC:1,2011-01-01T00:30:00Z,28.1930,-82.7890,16.16,1111122 
COMPS,ioos:station:USF.COMPS:ANC:1,2011-01-01T00:36:00Z,28.1930,-82.7890,16.06,1111122 
COMPS,ioos:station:USF.COMPS:ANC:1,2011-01-01T00:42:00Z,28.1930,-82.7890,16.25,1111122 
COMPS,ioos:station:USF.COMPS:ANC:1,2011-01-01T00:48:00Z,28.1930,-82.7890,16.36,1111122 
COMPS,ioos:station:USF.COMPS:ANC:1,2011-01-01T00:54:00Z,28.1930,-82.7890,16.58,1111122 
COMPS,ioos:station:USF.COMPS:ANC:1,2011-01-01T01:00:00Z,28.1930,-82.7890,16.6,1111122 
COMPS,ioos:station:USF.COMPS:ANC:1,2011-01-01T01:06:00Z,28.1930,-82.7890,16.91,1111122 
COMPS,ioos:station:USF.COMPS:ANC:1,2011-01-01T01:12:00Z,28.1930,-82.7890,16.76,1111122 
COMPS,ioos:station:USF.COMPS:ANC:1,2011-01-01T01:18:00Z,28.1930,-82.7890,16.14,1111122 
COMPS,ioos:station:USF.COMPS:ANC:1,2011-01-01T01:24:00Z,28.1930,-82.7890,16.4,1111122 
COMPS,ioos:station:USF.COMPS:ANC:1,2011-01-01T01:30:00Z,28.1930,-82.7890,16.24,1111122 
COMPS,ioos:station:USF.COMPS:ANC:1,2011-01-01T01:36:00Z,28.1930,-82.7890,16.72,1111122 
COMPS,ioos:station:USF.COMPS:ANC:1,2011-01-01T01:42:00Z,28.1930,-82.7890,17.0,1111122 
COMPS,ioos:station:USF.COMPS:ANC:1,2011-01-01T01:48:00Z,28.1930,-82.7890,17.49,1111122 
COMPS,ioos:station:USF.COMPS:ANC:1,2011-01-01T01:54:00Z,28.1930,-82.7890,17.72,1111122 
COMPS,ioos:station:USF.COMPS:ANC:1,2011-01-01T02:00:00Z,28.1930,-82.7890,17.7,1111122 
COMPS,ioos:station:USF.COMPS:ANC:1,2011-01-01T02:06:00Z,28.1930,-82.7890,17.4,1111122 
COMPS,ioos:station:USF.COMPS:ANC:1,2011-01-01T02:12:00Z,28.1930,-82.7890,17.65,1111122 
COMPS,ioos:station:USF.COMPS:ANC:1,2011-01-01T02:18:00Z,28.1930,-82.7890,17.86,1111122 
COMPS,ioos:station:USF.COMPS:ANC:1,2011-01-01T02:24:00Z,28.1930,-82.7890,18.0,1111122 
COMPS,ioos:station:USF.COMPS:ANC:1,2011-01-01T02:30:00Z,28.1930,-82.7890,17.88,1111122 
COMPS,ioos:station:USF.COMPS:ANC:1,2011-01-01T02:36:00Z,28.1930,-82.7890,17.92,1111122 
COMPS,ioos:station:USF.COMPS:ANC:1,2011-01-01T02:42:00Z,28.1930,-82.7890,17.85,1111122 
COMPS,ioos:station:USF.COMPS:ANC:1,2011-01-01T02:48:00Z,28.1930,-82.7890,17.97,1111122 
COMPS,ioos:station:USF.COMPS:ANC:1,2011-01-01T02:54:00Z,28.1930,-82.7890,17.99,1111122 
COMPS,ioos:station:USF.COMPS:ANC:1,2011-01-01T03:00:00Z,28.1930,-82.7890,18.0,1111122 
COMPS,ioos:station:USF.COMPS:ANC:1,2011-01-01T03:06:00Z,28.1930,-82.7890,17.99,1111122 
COMPS,ioos:station:USF.COMPS:ANC:1,2011-01-01T03:12:00Z,28.1930,-82.7890,17.99,1111122 
COMPS,ioos:station:USF.COMPS:ANC:1,2011-01-01T03:18:00Z,28.1930,-82.7890,17.92,1111122 
COMPS,ioos:station:USF.COMPS:ANC:1,2011-01-01T03:24:00Z,28.1930,-82.7890,18.12,1111122 
COMPS,ioos:station:USF.COMPS:ANC:1,2011-01-01T03:30:00Z,28.1930,-82.7890,17.78,1111122 
COMPS,ioos:station:USF.COMPS:ANC:1,2011-01-01T03:36:00Z,28.1930,-82.7890,17.67,1111122 
COMPS,ioos:station:USF.COMPS:ANC:1,2011-01-01T03:42:00Z,28.1930,-82.7890,17.62,1111122 
COMPS,ioos:station:USF.COMPS:ANC:1,2011-01-01T03:48:00Z,28.1930,-82.7890,17.58,1111122 
COMPS,ioos:station:USF.COMPS:ANC:1,2011-01-01T03:54:00Z,28.1930,-82.7890,17.63,1111122 
COMPS,ioos:station:USF.COMPS:ANC:1,2011-01-01T04:00:00Z,28.1930,-82.7890,17.6,1111122 
COMPS,ioos:station:USF.COMPS:ANC:1,2011-01-01T04:06:00Z,28.1930,-82.7890,17.57,1111122 
COMPS,ioos:station:USF.COMPS:ANC:1,2011-01-01T04:12:00Z,28.1930,-82.7890,17.49,1111122 
COMPS,ioos:station:USF.COMPS:ANC:1,2011-01-01T04:18:00Z,28.1930,-82.7890,17.42,1111122 
COMPS,ioos:station:USF.COMPS:ANC:1,2011-01-01T04:24:00Z,28.1930,-82.7890,17.49,1111122 
COMPS,ioos:station:USF.COMPS:ANC:1,2011-01-01T04:30:00Z,28.1930,-82.7890,17.29,1111122 
COMPS,ioos:station:USF.COMPS:ANC:1,2011-01-01T04:36:00Z,28.1930,-82.7890,17.3,1111122 
COMPS,ioos:station:USF.COMPS:ANC:1,2011-01-01T04:42:00Z,28.1930,-82.7890,17.3,1111122 
COMPS,ioos:station:USF.COMPS:ANC:1,2011-01-01T04:48:00Z,28.1930,-82.7890,17.24,1111122 
COMPS,ioos:station:USF.COMPS:ANC:1,2011-01-01T04:54:00Z,28.1930,-82.7890,17.2,1111122 
COMPS,ioos:station:USF.COMPS:ANC:1,2011-01-01T05:00:00Z,28.1930,-82.7890,17.2,1111122 
COMPS,ioos:station:USF.COMPS:ANC:1,2011-01-01T05:06:00Z,28.1930,-82.7890,17.28,1111122 
COMPS,ioos:station:USF.COMPS:ANC:1,2011-01-01T05:12:00Z,28.1930,-82.7890,17.16,1111122 
COMPS,ioos:station:USF.COMPS:ANC:1,2011-01-01T05:18:00Z,28.1930,-82.7890,17.2,1111122 
COMPS,ioos:station:USF.COMPS:ANC:1,2011-01-01T05:24:00Z,28.1930,-82.7890,17.33,1111122 
COMPS,ioos:station:USF.COMPS:ANC:1,2011-01-01T05:30:00Z,28.1930,-82.7890,17.13,1111122 
COMPS,ioos:station:USF.COMPS:ANC:1,2011-01-01T05:36:00Z,28.1930,-82.7890,17.22,1111122 
COMPS,ioos:station:USF.COMPS:ANC:1,2011-01-01T05:42:00Z,28.1930,-82.7890,17.25,1111122 
COMPS,ioos:station:USF.COMPS:ANC:1,2011-01-01T05:48:00Z,28.1930,-82.7890,17.31,1111122 
COMPS,ioos:station:USF.COMPS:ANC:1,2011-01-01T05:54:00Z,28.1930,-82.7890,17.29,1111122 
COMPS,ioos:station:USF.COMPS:ANC:1,2011-01-01T06:00:00Z,28.1930,-82.7890,17.3,1111122 
COMPS,ioos:station:USF.COMPS:ANC:1,2011-01-01T06:06:00Z,28.1930,-82.7890,17.16,1111122 
COMPS,ioos:station:USF.COMPS:ANC:1,2011-01-01T06:12:00Z,28.1930,-82.7890,17.25,1111122 
COMPS,ioos:station:USF.COMPS:ANC:1,2011-01-01T06:18:00Z,28.1930,-82.7890,17.35,1111122 
COMPS,ioos:station:USF.COMPS:ANC:1,2011-01-01T06:24:00Z,28.1930,-82.7890,17.54,1111122 
COMPS,ioos:station:USF.COMPS:ANC:1,2011-01-01T06:30:00Z,28.1930,-82.7890,17.31,1111122 
COMPS,ioos:station:USF.COMPS:ANC:1,2011-01-01T06:36:00Z,28.1930,-82.7890,17.29,1111122 
COMPS,ioos:station:USF.COMPS:ANC:1,2011-01-01T06:42:00Z,28.1930,-82.7890,17.37,1111122 
COMPS,ioos:station:USF.COMPS:ANC:1,2011-01-01T06:48:00Z,28.1930,-82.7890,17.73,1111122 
COMPS,ioos:station:USF.COMPS:ANC:1,2011-01-01T06:54:00Z,28.1930,-82.7890,17.76,1111122 
COMPS,ioos:station:USF.COMPS:ANC:1,2011-01-01T07:00:00Z,28.1930,-82.7890,17.8,1111122 
COMPS,ioos:station:USF.COMPS:ANC:1,2011-01-01T07:06:00Z,28.1930,-82.7890,17.66,1111122 
COMPS,ioos:station:USF.COMPS:ANC:1,2011-01-01T07:12:00Z,28.1930,-82.7890,17.64,1111122 
COMPS,ioos:station:USF.COMPS:ANC:1,2011-01-01T07:18:00Z,28.1930,-82.7890,17.58,1111122 
COMPS,ioos:station:USF.COMPS:ANC:1,2011-01-01T07:24:00Z,28.1930,-82.7890,17.63,1111122 
COMPS,ioos:station:USF.COMPS:ANC:1,2011-01-01T07:30:00Z,28.1930,-82.7890,17.35,1111122 
COMPS,ioos:station:USF.COMPS:ANC:1,2011-01-01T07:36:00Z,28.1930,-82.7890,17.18,1111122 
COMPS,ioos:station:USF.COMPS:ANC:1,2011-01-01T07:42:00Z,28.1930,-82.7890,17.03,1111122 
COMPS,ioos:station:USF.COMPS:ANC:1,2011-01-01T07:48:00Z,28.1930,-82.7890,16.92,1111122 
COMPS,ioos:station:USF.COMPS:ANC:1,2011-01-01T07:54:00Z,28.1930,-82.7890,16.88,1111122 
COMPS,ioos:station:USF.COMPS:ANC:1,2011-01-01T08:00:00Z,28.1930,-82.7890,16.9,1111122 
COMPS,ioos:station:USF.COMPS:ANC:1,2011-01-01T08:06:00Z,28.1930,-82.7890,16.76,1111122 
COMPS,ioos:station:USF.COMPS:ANC:1,2011-01-01T08:12:00Z,28.1930,-82.7890,16.75,1111122 
COMPS,ioos:station:USF.COMPS:ANC:1,2011-01-01T08:18:00Z,28.1930,-82.7890,16.74,1111122 
COMPS,ioos:station:USF.COMPS:ANC:1,2011-01-01T08:24:00Z,28.1930,-82.7890,16.82,1111122 
COMPS,ioos:station:USF.COMPS:ANC:1,2011-01-01T08:30:00Z,28.1930,-82.7890,16.38,1111122 
COMPS,ioos:station:USF.COMPS:ANC:1,2011-01-01T08:36:00Z,28.1930,-82.7890,15.97,1111122 
COMPS,ioos:station:USF.COMPS:ANC:1,2011-01-01T08:42:00Z,28.1930,-82.7890,15.8,1111122 
COMPS,ioos:station:USF.COMPS:ANC:1,2011-01-01T08:48:00Z,28.1930,-82.7890,15.63,1111122 
COMPS,ioos:station:USF.COMPS:ANC:1,2011-01-01T08:54:00Z,28.1930,-82.7890,15.53,1111122 
COMPS,ioos:station:USF.COMPS:ANC:1,2011-01-01T09:00:00Z,28.1930,-82.7890,15.5,1111122 
COMPS,ioos:station:USF.COMPS:ANC:1,2011-01-01T09:06:00Z,28.1930,-82.7890,15.44,1111122 
COMPS,ioos:station:USF.COMPS:ANC:1,2011-01-01T09:12:00Z,28.1930,-82.7890,15.37,1111122 
COMPS,ioos:station:USF.COMPS:ANC:1,2011-01-01T09:18:00Z,28.1930,-82.7890,15.35,1111122 
COMPS,ioos:station:USF.COMPS:ANC:1,2011-01-01T09:24:00Z,28.1930,-82.7890,15.51,1111122 
COMPS,ioos:station:USF.COMPS:ANC:1,2011-01-01T09:30:00Z,28.1930,-82.7890,15.19,1111122 
COMPS,ioos:station:USF.COMPS:ANC:1,2011-01-01T09:36:00Z,28.1930,-82.7890,15.13,1111122 
COMPS,ioos:station:USF.COMPS:ANC:1,2011-01-01T09:42:00Z,28.1930,-82.7890,15.11,1111122 
COMPS,ioos:station:USF.COMPS:ANC:1,2011-01-01T09:48:00Z,28.1930,-82.7890,15.16,1111122 
COMPS,ioos:station:USF.COMPS:ANC:1,2011-01-01T09:54:00Z,28.1930,-82.7890,15.08,1111122 
COMPS,ioos:station:USF.COMPS:ANC:1,2011-01-01T10:00:00Z,28.1930,-82.7890,15.1,1111122 
COMPS,ioos:station:USF.COMPS:ANC:1,2011-01-01T10:06:00Z,28.1930,-82.7890,15.0,1111122 
COMPS,ioos:station:USF.COMPS:ANC:1,2011-01-01T10:12:00Z,28.1930,-82.7890,15.07,1111122 
COMPS,ioos:station:USF.COMPS:ANC:1,2011-01-01T10:18:00Z,28.1930,-82.7890,15.1,1111122 
COMPS,ioos:station:USF.COMPS:ANC:1,2011-01-01T10:24:00Z,28.1930,-82.7890,15.32,1111122 
COMPS,ioos:station:USF.COMPS:ANC:1,2011-01-01T10:30:00Z,28.1930,-82.7890,15.14,1111122 
COMPS,ioos:station:USF.COMPS:ANC:1,2011-01-01T10:36:00Z,28.1930,-82.7890,15.19,1111122 
COMPS,ioos:station:USF.COMPS:ANC:1,2011-01-01T10:42:00Z,28.1930,-82.7890,15.13,1111122 
COMPS,ioos:station:USF.COMPS:ANC:1,2011-01-01T10:48:00Z,28.1930,-82.7890,15.13,1111122 
COMPS,ioos:station:USF.COMPS:ANC:1,2011-01-01T10:54:00Z,28.1930,-82.7890,15.03,1111122 
COMPS,ioos:station:USF.COMPS:ANC:1,2011-01-01T11:00:00Z,28.1930,-82.7890,15.0,1111122 
COMPS,ioos:station:USF.COMPS:ANC:1,2011-01-01T11:06:00Z,28.1930,-82.7890,15.16,1111122 
COMPS,ioos:station:USF.COMPS:ANC:1,2011-01-01T11:12:00Z,28.1930,-82.7890,15.23,1111122 
COMPS,ioos:station:USF.COMPS:ANC:1,2011-01-01T11:18:00Z,28.1930,-82.7890,15.19,1111122 
COMPS,ioos:station:USF.COMPS:ANC:1,2011-01-01T11:24:00Z,28.1930,-82.7890,15.42,1111122 
COMPS,ioos:station:USF.COMPS:ANC:1,2011-01-01T11:30:00Z,28.1930,-82.7890,15.38,1111122 
COMPS,ioos:station:USF.COMPS:ANC:1,2011-01-01T11:36:00Z,28.1930,-82.7890,15.4,1111122 
COMPS,ioos:station:USF.COMPS:ANC:1,2011-01-01T11:42:00Z,28.1930,-82.7890,15.39,1111122 
COMPS,ioos:station:USF.COMPS:ANC:1,2011-01-01T11:48:00Z,28.1930,-82.7890,15.29,1111122 
COMPS,ioos:station:USF.COMPS:ANC:1,2011-01-01T11:54:00Z,28.1930,-82.7890,15.36,1111122 
COMPS,ioos:station:USF.COMPS:ANC:1,2011-01-01T12:00:00Z,28.1930,-82.7890,15.4,1111122 
COMPS,ioos:station:USF.COMPS:ANC:1,2011-01-01T12:06:00Z,28.1930,-82.7890,15.27,1111122 
COMPS,ioos:station:USF.COMPS:ANC:1,2011-01-01T12:12:00Z,28.1930,-82.7890,15.27,1111122 
COMPS,ioos:station:USF.COMPS:ANC:1,2011-01-01T12:18:00Z,28.1930,-82.7890,15.24,1111122 
COMPS,ioos:station:USF.COMPS:ANC:1,2011-01-01T12:24:00Z,28.1930,-82.7890,15.29,1111122 
COMPS,ioos:station:USF.COMPS:ANC:1,2011-01-01T12:30:00Z,28.1930,-82.7890,14.99,1111122 
COMPS,ioos:station:USF.COMPS:ANC:1,2011-01-01T12:36:00Z,28.1930,-82.7890,15.02,1111122 
COMPS,ioos:station:USF.COMPS:ANC:1,2011-01-01T12:42:00Z,28.1930,-82.7890,15.13,1111122 
COMPS,ioos:station:USF.COMPS:ANC:1,2011-01-01T12:48:00Z,28.1930,-82.7890,15.13,1111122 
COMPS,ioos:station:USF.COMPS:ANC:1,2011-01-01T12:54:00Z,28.1930,-82.7890,15.12,1111122 
COMPS,ioos:station:USF.COMPS:ANC:1,2011-01-01T13:00:00Z,28.1930,-82.7890,15.1,1111122 
COMPS,ioos:station:USF.COMPS:ANC:1,2011-01-01T14:00:00Z,28.1930,-82.7890,17.3,1111122 
COMPS,ioos:station:USF.COMPS:ANC:1,2011-01-01T14:06:00Z,28.1930,-82.7890,18.04,1111122 
COMPS,ioos:station:USF.COMPS:ANC:1,2011-01-01T14:12:00Z,28.1930,-82.7890,18.29,1111122 
COMPS,ioos:station:USF.COMPS:ANC:1,2011-01-01T14:18:00Z,28.1930,-82.7890,18.45,1111122 
COMPS,ioos:station:USF.COMPS:ANC:1,2011-01-01T14:24:00Z,28.1930,-82.7890,18.99,1111122 
COMPS,ioos:station:USF.COMPS:ANC:1,2011-01-01T14:30:00Z,28.1930,-82.7890,18.91,1111122 
COMPS,ioos:station:USF.COMPS:ANC:1,2011-01-01T14:36:00Z,28.1930,-82.7890,19.03,1111122 
COMPS,ioos:station:USF.COMPS:ANC:1,2011-01-01T14:42:00Z,28.1930,-82.7890,19.1,1111122 
COMPS,ioos:station:USF.COMPS:ANC:1,2011-01-01T14:48:00Z,28.1930,-82.7890,19.17,1111122 
COMPS,ioos:station:USF.COMPS:ANC:1,2011-01-01T14:54:00Z,28.1930,-82.7890,19.31,1111122 
COMPS,ioos:station:USF.COMPS:ANC:1,2011-01-01T15:00:00Z,28.1930,-82.7890,19.3,1111122 
COMPS,ioos:station:USF.COMPS:ANC:1,2011-01-01T15:06:00Z,28.1930,-82.7890,19.54,1111122 
COMPS,ioos:station:USF.COMPS:ANC:1,2011-01-01T15:12:00Z,28.1930,-82.7890,19.7,1111122 
COMPS,ioos:station:USF.COMPS:ANC:1,2011-01-01T15:18:00Z,28.1930,-82.7890,19.87,1111122 
COMPS,ioos:station:USF.COMPS:ANC:1,2011-01-01T15:24:00Z,28.1930,-82.7890,20.26,1111122 
COMPS,ioos:station:USF.COMPS:ANC:1,2011-01-01T15:30:00Z,28.1930,-82.7890,20.12,1111122 
COMPS,ioos:station:USF.COMPS:ANC:1,2011-01-01T15:36:00Z,28.1930,-82.7890,20.27,1111122 
COMPS,ioos:station:USF.COMPS:ANC:1,2011-01-01T15:42:00Z,28.1930,-82.7890,20.54,1111122 
COMPS,ioos:station:USF.COMPS:ANC:1,2011-01-01T15:48:00Z,28.1930,-82.7890,20.6,1111122 
COMPS,ioos:station:USF.COMPS:ANC:1,2011-01-01T15:54:00Z,28.1930,-82.7890,20.9,1111122 
COMPS,ioos:station:USF.COMPS:ANC:1,2011-01-01T16:00:00Z,28.1930,-82.7890,20.9,1111122 
COMPS,ioos:station:USF.COMPS:ANC:1,2011-01-01T16:06:00Z,28.1930,-82.7890,20.99,1111122 
COMPS,ioos:station:USF.COMPS:ANC:1,2011-01-01T16:12:00Z,28.1930,-82.7890,21.11,1111122 
COMPS,ioos:station:USF.COMPS:ANC:1,2011-01-01T16:18:00Z,28.1930,-82.7890,21.12,1111122 
COMPS,ioos:station:USF.COMPS:ANC:1,2011-01-01T16:24:00Z,28.1930,-82.7890,21.46,1111122 
COMPS,ioos:station:USF.COMPS:ANC:1,2011-01-01T16:30:00Z,28.1930,-82.7890,21.52,1111122 
COMPS,ioos:station:USF.COMPS:ANC:1,2011-01-01T16:36:00Z,28.1930,-82.7890,21.68,1111122 
COMPS,ioos:station:USF.COMPS:ANC:1,2011-01-01T16:42:00Z,28.1930,-82.7890,21.74,1111122 
COMPS,ioos:station:USF.COMPS:ANC:1,2011-01-01T16:48:00Z,28.1930,-82.7890,21.75,1111122 
COMPS,ioos:station:USF.COMPS:ANC:1,2011-01-01T16:54:00Z,28.1930,-82.7890,21.85,1111122 
COMPS,ioos:station:USF.COMPS:ANC:1,2011-01-01T17:00:00Z,28.1930,-82.7890,21.9,1111122 
COMPS,ioos:station:USF.COMPS:ANC:1,2011-01-01T17:06:00Z,28.1930,-82.7890,21.99,1111122 
COMPS,ioos:station:USF.COMPS:ANC:1,2011-01-01T17:12:00Z,28.1930,-82.7890,22.29,1111122 
COMPS,ioos:station:USF.COMPS:ANC:1,2011-01-01T17:18:00Z,28.1930,-82.7890,22.2,1111122 
COMPS,ioos:station:USF.COMPS:ANC:1,2011-01-01T17:24:00Z,28.1930,-82.7890,22.55,1111122 
COMPS,ioos:station:USF.COMPS:ANC:1,2011-01-01T17:30:00Z,28.1930,-82.7890,22.57,1111122 
COMPS,ioos:station:USF.COMPS:ANC:1,2011-01-01T17:36:00Z,28.1930,-82.7890,22.74,1111122 
COMPS,ioos:station:USF.COMPS:ANC:1,2011-01-01T17:42:00Z,28.1930,-82.7890,22.93,1111122 
COMPS,ioos:station:USF.COMPS:ANC:1,2011-01-01T17:48:00Z,28.1930,-82.7890,23.01,1111122 
COMPS,ioos:station:USF.COMPS:ANC:1,2011-01-01T17:54:00Z,28.1930,-82.7890,22.94,1111122 
COMPS,ioos:station:USF.COMPS:ANC:1,2011-01-01T18:00:00Z,28.1930,-82.7890,22.9,1111122 
COMPS,ioos:station:USF.COMPS:ANC:1,2011-01-01T18:06:00Z,28.1930,-82.7890,23.26,1111122 
COMPS,ioos:station:USF.COMPS:ANC:1,2011-01-01T18:12:00Z,28.1930,-82.7890,23.31,1111122 
COMPS,ioos:station:USF.COMPS:ANC:1,2011-01-01T18:18:00Z,28.1930,-82.7890,23.54,1111122 
COMPS,ioos:station:USF.COMPS:ANC:1,2011-01-01T18:24:00Z,28.1930,-82.7890,24.16,1111122 
COMPS,ioos:station:USF.COMPS:ANC:1,2011-01-01T18:30:00Z,28.1930,-82.7890,23.77,1111122 
COMPS,ioos:station:USF.COMPS:ANC:1,2011-01-01T18:36:00Z,28.1930,-82.7890,23.46,1111122 
COMPS,ioos:station:USF.COMPS:ANC:1,2011-01-01T18:42:00Z,28.1930,-82.7890,23.29,1111122 
COMPS,ioos:station:USF.COMPS:ANC:1,2011-01-01T18:48:00Z,28.1930,-82.7890,23.34,1111122 
COMPS,ioos:station:USF.COMPS:ANC:1,2011-01-01T18:54:00Z,28.1930,-82.7890,23.53,1111122 
COMPS,ioos:station:USF.COMPS:ANC:1,2011-01-01T19:00:00Z,28.1930,-82.7890,23.5,1111122 
COMPS,ioos:station:USF.COMPS:ANC:1,2011-01-01T19:06:00Z,28.1930,-82.7890,23.82,1111122 
COMPS,ioos:station:USF.COMPS:ANC:1,2011-01-01T19:12:00Z,28.1930,-82.7890,23.83,1111122 
COMPS,ioos:station:USF.COMPS:ANC:1,2011-01-01T19:18:00Z,28.1930,-82.7890,23.88,1111122 
COMPS,ioos:station:USF.COMPS:ANC:1,2011-01-01T19:24:00Z,28.1930,-82.7890,24.07,1111122 
COMPS,ioos:station:USF.COMPS:ANC:1,2011-01-01T19:30:00Z,28.1930,-82.7890,23.86,1111122 
COMPS,ioos:station:USF.COMPS:ANC:1,2011-01-01T19:36:00Z,28.1930,-82.7890,23.67,1111122 
COMPS,ioos:station:USF.COMPS:ANC:1,2011-01-01T19:42:00Z,28.1930,-82.7890,23.88,1111122 
COMPS,ioos:station:USF.COMPS:ANC:1,2011-01-01T19:48:00Z,28.1930,-82.7890,23.85,1111122 
COMPS,ioos:station:USF.COMPS:ANC:1,2011-01-01T19:54:00Z,28.1930,-82.7890,23.93,1111122 
COMPS,ioos:station:USF.COMPS:ANC:1,2011-01-01T20:00:00Z,28.1930,-82.7890,23.9,1111122 
COMPS,ioos:station:USF.COMPS:ANC:1,2011-01-01T20:06:00Z,28.1930,-82.7890,23.76,1111122 
COMPS,ioos:station:USF.COMPS:ANC:1,2011-01-01T20:12:00Z,28.1930,-82.7890,23.97,1111122 
COMPS,ioos:station:USF.COMPS:ANC:1,2011-01-01T20:18:00Z,28.1930,-82.7890,24.11,1111122 
COMPS,ioos:station:USF.COMPS:ANC:1,2011-01-01T20:24:00Z,28.1930,-82.7890,24.56,1111122 
COMPS,ioos:station:USF.COMPS:ANC:1,2011-01-01T20:30:00Z,28.1930,-82.7890,24.37,1111122 
COMPS,ioos:station:USF.COMPS:ANC:1,2011-01-01T20:36:00Z,28.1930,-82.7890,24.16,1111122 
COMPS,ioos:station:USF.COMPS:ANC:1,2011-01-01T20:42:00Z,28.1930,-82.7890,24.3,1111122 
COMPS,ioos:station:USF.COMPS:ANC:1,2011-01-01T20:48:00Z,28.1930,-82.7890,24.43,1111122 
COMPS,ioos:station:USF.COMPS:ANC:1,2011-01-01T20:54:00Z,28.1930,-82.7890,24.05,1111122 
COMPS,ioos:station:USF.COMPS:ANC:1,2011-01-01T21:00:00Z,28.1930,-82.7890,24.1,1111122 
COMPS,ioos:station:USF.COMPS:ANC:1,2011-01-01T21:06:00Z,28.1930,-82.7890,23.97,1111122 
COMPS,ioos:station:USF.COMPS:ANC:1,2011-01-01T21:12:00Z,28.1930,-82.7890,24.09,1111122 
COMPS,ioos:station:USF.COMPS:ANC:1,2011-01-01T21:18:00Z,28.1930,-82.7890,24.05,1111122 
COMPS,ioos:station:USF.COMPS:ANC:1,2011-01-01T21:24:00Z,28.1930,-82.7890,24.35,1111122 
COMPS,ioos:station:USF.COMPS:ANC:1,2011-01-01T21:30:00Z,28.1930,-82.7890,23.78,1111122 
COMPS,ioos:station:USF.COMPS:ANC:1,2011-01-01T21:36:00Z,28.1930,-82.7890,23.21,1111122 
COMPS,ioos:station:USF.COMPS:ANC:1,2011-01-01T21:42:00Z,28.1930,-82.7890,22.7,1111122 
COMPS,ioos:station:USF.COMPS:ANC:1,2011-01-01T21:48:00Z,28.1930,-82.7890,22.48,1111122 
COMPS,ioos:station:USF.COMPS:ANC:1,2011-01-01T21:54:00Z,28.1930,-82.7890,22.32,1111122 
COMPS,ioos:station:USF.COMPS:ANC:1,2011-01-01T22:00:00Z,28.1930,-82.7890,22.3,1111122 
COMPS,ioos:station:USF.COMPS:ANC:1,2011-01-01T22:06:00Z,28.1930,-82.7890,22.05,1111122 
COMPS,ioos:station:USF.COMPS:ANC:1,2011-01-01T22:12:00Z,28.1930,-82.7890,21.9,1111122 
COMPS,ioos:station:USF.COMPS:ANC:1,2011-01-01T22:18:00Z,28.1930,-82.7890,21.85,1111122 
COMPS,ioos:station:USF.COMPS:ANC:1,2011-01-01T22:24:00Z,28.1930,-82.7890,22.05,1111122 
COMPS,ioos:station:USF.COMPS:ANC:1,2011-01-01T22:30:00Z,28.1930,-82.7890,21.86,1111122 
COMPS,ioos:station:USF.COMPS:ANC:1,2011-01-01T22:36:00Z,28.1930,-82.7890,21.81,1111122 
COMPS,ioos:station:USF.COMPS:ANC:1,2011-01-01T22:42:00Z,28.1930,-82.7890,21.79,1111122 
COMPS,ioos:station:USF.COMPS:ANC:1,2011-01-01T22:48:00Z,28.1930,-82.7890,21.68,1111122 
COMPS,ioos:station:USF.COMPS:ANC:1,2011-01-01T22:54:00Z,28.1930,-82.7890,21.84,1111122 
COMPS,ioos:station:USF.COMPS:ANC:1,2011-01-01T23:00:00Z,28.1930,-82.7890,21.8,1111122 
COMPS,ioos:station:USF.COMPS:ANC:1,2011-01-01T23:06:00Z,28.1930,-82.7890,21.08,1111122 
COMPS,ioos:station:USF.COMPS:ANC:1,2011-01-01T23:12:00Z,28.1930,-82.7890,20.56,1111122 
COMPS,ioos:station:USF.COMPS:ANC:1,2011-01-01T23:18:00Z,28.1930,-82.7890,20.05,1111122 
COMPS,ioos:station:USF.COMPS:ANC:1,2011-01-01T23:24:00Z,28.1930,-82.7890,19.69,1111122 
COMPS,ioos:station:USF.COMPS:ANC:1,2011-01-01T23:30:00Z,28.1930,-82.7890,19.03,1111122 
COMPS,ioos:station:USF.COMPS:ANC:1,2011-01-01T23:36:00Z,28.1930,-82.7890,18.5,1111122 
COMPS,ioos:station:USF.COMPS:ANC:1,2011-01-01T23:42:00Z,28.1930,-82.7890,18.36,1111122 
COMPS,ioos:station:USF.COMPS:ANC:1,2011-01-01T23:48:00Z,28.1930,-82.7890,18.3,1111122 
COMPS,ioos:station:USF.COMPS:ANC:1,2011-01-01T23:54:00Z,28.1930,-82.7890,18.1,1111122 
COMPS,ioos:station:USF.COMPS:ANC:1,2011-01-02T00:00:00Z,28.1930,-82.7890,18.1,1111122 
COMPS,ioos:station:USF.COMPS:ANC:1,2011-01-02T00:06:00Z,28.1930,-82.7890,17.85,1111122 
COMPS,ioos:station:USF.COMPS:ANC:1,2011-01-02T00:12:00Z,28.1930,-82.7890,17.8,1111122 
COMPS,ioos:station:USF.COMPS:ANC:1,2011-01-02T00:18:00Z,28.1930,-82.7890,17.9,1111122 
COMPS,ioos:station:USF.COMPS:ANC:1,2011-01-02T00:24:00Z,28.1930,-82.7890,18.29,1111122 
COMPS,ioos:station:USF.COMPS:ANC:1,2011-01-02T00:30:00Z,28.1930,-82.7890,18.11,1111122 
COMPS,ioos:station:USF.COMPS:ANC:1,2011-01-02T00:36:00Z,28.1930,-82.7890,18.03,1111122 
COMPS,ioos:station:USF.COMPS:ANC:1,2011-01-02T00:42:00Z,28.1930,-82.7890,17.97,1111122 
COMPS,ioos:station:USF.COMPS:ANC:1,2011-01-02T00:48:00Z,28.1930,-82.7890,17.98,1111122 
COMPS,ioos:station:USF.COMPS:ANC:1,2011-01-02T00:54:00Z,28.1930,-82.7890,18.0,1111122 
COMPS,ioos:station:USF.COMPS:ANC:1,2011-01-02T01:00:00Z,28.1930,-82.7890,18.0,1111122 
COMPS,ioos:station:USF.COMPS:ANC:1,2011-01-02T01:06:00Z,28.1930,-82.7890,18.06,1111122 
COMPS,ioos:station:USF.COMPS:ANC:1,2011-01-02T01:12:00Z,28.1930,-82.7890,17.96,1111122 
COMPS,ioos:station:USF.COMPS:ANC:1,2011-01-02T01:18:00Z,28.1930,-82.7890,17.84,1111122 
COMPS,ioos:station:USF.COMPS:ANC:1,2011-01-02T01:24:00Z,28.1930,-82.7890,18.03,1111122 
COMPS,ioos:station:USF.COMPS:ANC:1,2011-01-02T01:30:00Z,28.1930,-82.7890,17.74,1111122 
COMPS,ioos:station:USF.COMPS:ANC:1,2011-01-02T01:36:00Z,28.1930,-82.7890,17.56,1111122 
COMPS,ioos:station:USF.COMPS:ANC:1,2011-01-02T01:42:00Z,28.1930,-82.7890,17.4,1111122 
COMPS,ioos:station:USF.COMPS:ANC:1,2011-01-02T01:48:00Z,28.1930,-82.7890,17.4,1111122 
COMPS,ioos:station:USF.COMPS:ANC:1,2011-01-02T01:54:00Z,28.1930,-82.7890,17.45,1111122 
COMPS,ioos:station:USF.COMPS:ANC:1,2011-01-02T02:00:00Z,28.1930,-82.7890,17.5,1111122 
COMPS,ioos:station:USF.COMPS:ANC:1,2011-01-02T02:06:00Z,28.1930,-82.7890,18.11,1111122 
COMPS,ioos:station:USF.COMPS:ANC:1,2011-01-02T02:12:00Z,28.1930,-82.7890,18.0,1111122 
COMPS,ioos:station:USF.COMPS:ANC:1,2011-01-02T02:18:00Z,28.1930,-82.7890,18.44,1111122 
COMPS,ioos:station:USF.COMPS:ANC:1,2011-01-02T02:24:00Z,28.1930,-82.7890,18.65,1111122 
COMPS,ioos:station:USF.COMPS:ANC:1,2011-01-02T02:30:00Z,28.1930,-82.7890,18.06,1111122 
COMPS,ioos:station:USF.COMPS:ANC:1,2011-01-02T02:36:00Z,28.1930,-82.7890,17.97,1111122 
COMPS,ioos:station:USF.COMPS:ANC:1,2011-01-02T02:42:00Z,28.1930,-82.7890,18.16,1111122 
COMPS,ioos:station:USF.COMPS:ANC:1,2011-01-02T02:48:00Z,28.1930,-82.7890,18.36,1111122 
COMPS,ioos:station:USF.COMPS:ANC:1,2011-01-02T02:54:00Z,28.1930,-82.7890,18.52,1111122 
COMPS,ioos:station:USF.COMPS:ANC:1,2011-01-02T03:00:00Z,28.1930,-82.7890,18.5,1111122 
COMPS,ioos:station:USF.COMPS:ANC:1,2011-01-02T03:06:00Z,28.1930,-82.7890,18.27,1111122 
COMPS,ioos:station:USF.COMPS:ANC:1,2011-01-02T03:12:00Z,28.1930,-82.7890,18.03,1111122 
COMPS,ioos:station:USF.COMPS:ANC:1,2011-01-02T03:18:00Z,28.1930,-82.7890,18.07,1111122 
COMPS,ioos:station:USF.COMPS:ANC:1,2011-01-02T03:24:00Z,28.1930,-82.7890,18.3,1111122 
COMPS,ioos:station:USF.COMPS:ANC:1,2011-01-02T03:30:00Z,28.1930,-82.7890,18.2,1111122 
COMPS,ioos:station:USF.COMPS:ANC:1,2011-01-02T03:36:00Z,28.1930,-82.7890,18.35,1111122 
COMPS,ioos:station:USF.COMPS:ANC:1,2011-01-02T03:42:00Z,28.1930,-82.7890,18.22,1111122 
COMPS,ioos:station:USF.COMPS:ANC:1,2011-01-02T03:48:00Z,28.1930,-82.7890,17.97,1111122 
COMPS,ioos:station:USF.COMPS:ANC:1,2011-01-02T03:54:00Z,28.1930,-82.7890,17.94,1111122 
COMPS,ioos:station:USF.COMPS:ANC:1,2011-01-02T04:00:00Z,28.1930,-82.7890,17.9,1111122 